Time,TemperatureF,DewpointF,PressureIn,WindDirection,WindDirectionDegrees,WindSpeedMPH,WindSpeedGustMPH,Humidity,HourlyPrecipIn,Conditions,Clouds,dailyrainin,SoftwareType,DateUTC
2014-12-28 00:00:00,44.3,39.1,30.08,WSW,247,0.0,0.0,82,0.00,BKN,BKN,0.00,WeatherDisplay:10.31,2014-12-28 05:00:00,
2014-12-28 00:10:00,44.1,39.0,30.07,SW,234,2.0,3.0,82,0.00,BKN,BKN,0.00,WeatherDisplay:10.31,2014-12-28 05:10:00,
2014-12-28 00:20:00,44.2,39.3,30.06,South,180,2.0,3.0,83,0.00,BKN,BKN,0.00,WeatherDisplay:10.31,2014-12-28 05:20:00,
2014-12-28 00:30:00,44.2,39.7,30.06,South,187,2.0,3.0,84,0.00,BKN,BKN,0.00,WeatherDisplay:10.31,2014-12-28 05:30:00,
2014-12-28 00:40:00,44.2,39.7,30.05,South,189,2.0,5.0,84,0.00,BKN,BKN,0.00,WeatherDisplay:10.31,2014-12-28 05:40:00,
2014-12-28 00:50:00,44.5,39.7,30.04,SSW,201,2.0,5.0,83,0.00,BKN,BKN,0.00,WeatherDisplay:10.31,2014-12-28 05:50:00,
2014-12-28 01:00:00,44.5,39.3,30.04,SW,215,1.0,5.0,82,0.00,BKN,BKN,0.00,WeatherDisplay:10.31,2014-12-28 06:00:00,
2014-12-28 01:10:00,44.4,39.5,30.03,SSW,201,1.0,3.0,83,0.00,SCT,SCT,0.00,WeatherDisplay:10.31,2014-12-28 06:10:00,
2014-12-28 01:20:00,44.3,39.8,30.03,SSW,201,0.0,5.0,84,0.00,SCT,SCT,0.00,WeatherDisplay:10.31,2014-12-28 06:20:00,
2014-12-28 01:30:00,44.2,40.0,30.02,SSW,210,5.0,6.0,85,0.00,SCT,SCT,0.00,WeatherDisplay:10.31,2014-12-28 06:30:00,
2014-12-28 01:40:00,44.3,40.4,30.01,South,189,1.0,3.0,86,0.00,SCT,SCT,0.00,WeatherDisplay:10.31,2014-12-28 06:40:00,
2014-12-28 01:50:00,44.4,40.8,30.01,SSW,198,2.0,5.0,87,0.00,SCT,SCT,0.00,WeatherDisplay:10.31,2014-12-28 06:50:00,
2014-12-28 02:00:00,44.7,41.1,30.01,SSW,207,2.0,5.0,87,0.00,SCT,SCT,0.00,WeatherDisplay:10.31,2014-12-28 07:00:00,
2014-12-28 02:10:00,44.6,41.0,30.00,South,184,1.0,3.0,87,0.00,SCT,SCT,0.00,WeatherDisplay:10.31,2014-12-28 07:10:00,
2014-12-28 02:20:00,44.3,41.0,29.99,South,185,2.0,5.0,88,0.00,BKN,BKN,0.00,WeatherDisplay:10.31,2014-12-28 07:20:00,
2014-12-28 02:30:00,44.3,41.0,29.99,SSW,204,1.0,3.0,88,0.00,BKN,BKN,0.00,WeatherDisplay:10.31,2014-12-28 07:30:00,
2014-12-28 02:40:00,44.3,41.0,29.98,SSW,195,2.0,5.0,88,0.00,BKN,BKN,0.00,WeatherDisplay:10.31,2014-12-28 07:40:00,
2014-12-28 02:50:00,44.5,41.1,29.98,SSW,196,2.0,6.0,88,0.00,BKN,BKN,0.00,WeatherDisplay:10.31,2014-12-28 07:50:00,
2014-12-28 03:00:00,44.7,41.4,29.97,SSW,202,1.0,6.0,88,0.00,BKN,BKN,0.00,WeatherDisplay:10.31,2014-12-28 08:00:00,
2014-12-28 03:10:00,44.9,41.6,29.97,SSW,202,1.0,7.0,88,0.00,BKN,BKN,0.00,WeatherDisplay:10.31,2014-12-28 08:10:00,
2014-12-28 03:20:00,44.9,41.6,29.96,South,190,1.0,6.0,88,0.00,BKN,BKN,0.00,WeatherDisplay:10.31,2014-12-28 08:20:00,
2014-12-28 03:30:00,44.8,41.5,29.96,SSW,204,3.0,5.0,88,0.00,BKN,BKN,0.00,WeatherDisplay:10.31,2014-12-28 08:30:00,
2014-12-28 03:40:00,44.7,41.4,29.96,SSW,207,1.0,5.0,88,0.00,BKN,BKN,0.00,WeatherDisplay:10.31,2014-12-28 08:40:00,
2014-12-28 03:50:00,44.7,41.4,29.94,SSW,197,1.0,5.0,88,0.00,BKN,BKN,0.00,WeatherDisplay:10.31,2014-12-28 08:50:00,
2014-12-28 04:00:00,44.7,41.1,29.93,SSW,196,2.0,5.0,87,0.00,BKN,BKN,0.00,WeatherDisplay:10.31,2014-12-28 09:00:00,